Weather History for KADS - May, 2013

Change the Weather History Date:

Wednesday, May 22, 2013

  Actual Average Record
Temperature  
Mean Temperature 70 °F -  
Max Temperature 84 °F 83 °F 98 °F (2005)
Min Temperature 57 °F 65 °F 55 °F (2001)
Cooling Degree Days 6    
Growing Degree Days 20 (Base 50)    
Moisture  
Dew Point 58 °F    
Average Humidity 78    
Maximum Humidity 100    
Minimum Humidity 29    
Precipitation  
Precipitation 0.00 in - - ()
Sea Level Pressure  
Sea Level Pressure 29.89 in    
Wind  
Wind Speed 2 mph (ESE)    
Max Wind Speed 9 mph    
Max Gust Speed -    
Visibility 10 miles    
Events Fog    
Averages and records for this station are not official NWS values.
T = Trace of Precipitation, MM = Missing Value Source: NWS Daily Summary

Daily Weather History Graph

Daily Weather History Graph

Search for Another Location

Airport or City:

Trip Planner

Search our weather history database for the weather conditions in past years. The results will help you decide how hot, cold, wet, or windy it might be!

Date:

Astronomy

May. 22, 2013 Rise Set
Actual Time 6:23 AM CDT 8:24 PM CDT
Civil Twilight 5:55 AM CDT 8:52 PM CDT
Nautical Twilight 5:22 AM CDT 9:26 PM CDT
Astronomical Twilight 4:46 AM CDT 10:02 PM CDT
Moon 5:55 PM CDT (5/22) 4:19 AM CDT (5/22)
Length of Visible Light 14h 56m
Length of Day
14h 01m
Waxing Gibbous, 91% of the Moon is Illuminated
May 22
Waxing Gibbous
May 24
Full
May 31
Last Quarter
Jun 8
New
Jun 16
First Quarter

Hourly Weather History & Observations

Time (CDT) Temp. Heat Index Dew Point Humidity Pressure Visibility Wind Dir Wind Speed Gust Speed Precip Events Conditions
12:15 AM 60.8 °F - 60.8 °F 100% 29.88 in 10.0 mi Calm Calm - N/A   Clear
12:35 AM 60.8 °F - 60.8 °F 100% 29.88 in 10.0 mi Calm Calm - N/A   Clear
12:55 AM 60.8 °F - 60.8 °F 100% 29.87 in 10.0 mi Calm Calm - N/A   Clear
1:15 AM 60.8 °F - 60.8 °F 100% 29.86 in 10.0 mi Calm Calm - N/A   Clear
1:35 AM 60.8 °F - 60.8 °F 100% 29.87 in 10.0 mi Calm Calm - N/A   Clear
1:55 AM 60.8 °F - 60.8 °F 100% 29.86 in 10.0 mi Calm Calm - N/A   Clear
2:15 AM 60.8 °F - 60.8 °F 100% 29.86 in 10.0 mi Calm Calm - N/A   Clear
2:35 AM 59.0 °F - 59.0 °F 100% 29.85 in 10.0 mi Calm Calm - N/A   Clear
2:55 AM 59.0 °F - 59.0 °F 100% 29.85 in 10.0 mi Calm Calm - N/A   Clear
3:15 AM 59.0 °F - 59.0 °F 100% 29.84 in 10.0 mi Calm Calm - N/A   Clear
3:35 AM 59.0 °F - 59.0 °F 100% 29.85 in 10.0 mi Calm Calm - N/A   Clear
3:55 AM 59.0 °F - 59.0 °F 100% 29.85 in 10.0 mi Calm Calm - N/A   Clear
4:15 AM 59.0 °F - 59.0 °F 100% 29.87 in 10.0 mi Calm Calm - N/A   Clear
4:35 AM 59.0 °F - 59.0 °F 100% 29.87 in 10.0 mi Calm Calm - N/A   Clear
4:55 AM 59.0 °F - 59.0 °F 100% 29.87 in 7.0 mi Calm Calm - N/A   Clear
5:15 AM 59.0 °F - 59.0 °F 100% 29.87 in 7.0 mi SE 4.6 mph - N/A   Clear
5:35 AM 57.2 °F - 57.2 °F 100% 29.86 in 10.0 mi ESE 4.6 mph - N/A   Clear
5:51 AM 59.0 °F - 55.4 °F 88% 29.88 in 13.0 mi Calm Calm - N/A   Clear
5:55 AM 59.0 °F - 59.0 °F 100% 29.87 in 10.0 mi Calm Calm - N/A   Clear
6:53 AM 59.0 °F - 55.4 °F 88% 29.88 in 12.0 mi East 6.9 mph - N/A   Clear
7:48 AM 60.8 °F - 57.2 °F 88% 29.91 in 1.0 mi SE 8.1 mph - N/A   Mostly Cloudy
8:03 AM 60.8 °F - 57.2 °F 88% 29.92 in 0.5 mi SE 5.8 mph - N/A Fog Fog
8:48 AM 60.8 °F - 59.0 °F 94% 29.95 in 3.0 mi ESE 4.6 mph - N/A   Overcast
9:47 AM 62.6 °F - 59.0 °F 88% 29.96 in 8.0 mi East 4.6 mph - N/A   Scattered Clouds
10:47 AM 69.8 °F - 60.8 °F 73% 29.97 in 13.0 mi Calm Calm - N/A   Clear
11:47 AM 73.4 °F - 59.0 °F 61% 29.96 in 13.0 mi Calm Calm - N/A   Clear
12:47 PM 77.0 °F - 55.4 °F 47% 29.95 in 13.0 mi ENE 4.6 mph - N/A   Clear
1:47 PM 80.6 °F 80.5 °F 55.4 °F 42% 29.93 in 13.0 mi WNW 3.5 mph - N/A   Partly Cloudy
2:47 PM 82.4 °F 81.4 °F 53.6 °F 37% 29.92 in 13.0 mi ESE 5.8 mph - N/A   Partly Cloudy
3:47 PM 84.2 °F - 51.8 °F 33% 29.91 in 13.0 mi SE 6.9 mph - N/A   Partly Cloudy
4:47 PM 84.2 °F - 51.8 °F 33% 29.88 in 13.0 mi ESE 9.2 mph - N/A   Clear
5:50 PM 84.2 °F - 48.2 °F 29% 29.87 in 13.0 mi ESE 4.6 mph - N/A   Clear
7:47 PM 80.6 °F 80.5 °F 55.4 °F 42% 29.86 in 13.0 mi ESE 9.2 mph - N/A   Clear
8:47 PM 78.8 °F - 57.2 °F 47% 29.87 in 13.0 mi ESE 6.9 mph - N/A   Clear
9:47 PM 77.0 °F - 57.2 °F 50% 29.89 in 13.0 mi ESE 5.8 mph - N/A   Clear
10:15 PM 75.2 °F - 57.2 °F 53% 29.90 in 10.0 mi ESE 6.9 mph - N/A   Clear
10:35 PM 75.2 °F - 57.2 °F 53% 29.91 in 10.0 mi ESE 6.9 mph - N/A   Clear
10:55 PM 73.4 °F - 57.2 °F 57% 29.92 in 10.0 mi East 5.8 mph - N/A   Clear
11:15 PM 73.4 °F - 59.0 °F 61% 29.93 in 10.0 mi East 6.9 mph - N/A   Clear
11:35 PM 73.4 °F - 59.0 °F 61% 29.93 in 10.0 mi ESE 8.1 mph - N/A   Clear
11:55 PM 73.4 °F - 60.8 °F 65% 29.93 in 10.0 mi ESE 8.1 mph - N/A   Clear